Weather History for Juliana Airport, St. Martin

Change the Weather History Date:

Monday, July 7, 2014

  Actual Average Record
Temperature  
Mean Temperature 84 °F -  
Max Temperature 87 °F 86 °F 91 °F (2001)
Min Temperature 81 °F 77 °F 75 °F (2011)
Cooling Degree Days 19    
Growing Degree Days 34 (Base 50)    
Moisture  
Dew Point 73 °F    
Average Humidity 69    
Maximum Humidity 79    
Minimum Humidity 53    
Precipitation  
Precipitation 0.00 in 0.11 in - ()
Sea Level Pressure  
Sea Level Pressure 30.11 in    
Wind  
Wind Speed 10 mph ()    
Max Wind Speed 15 mph    
Max Gust Speed 25 mph    
Visibility 8.0 miles    
Events      
Averages and records for this station are not official NWS values.
T = Trace of Precipitation, MM = Missing Value Source: Averaged Metar Reports

Daily Weather History Graph

Daily Weather History Graph

Search for Another Location

Airport:

Trip Planner

Search our weather history database for the weather conditions in past years. The results will help you decide how hot, cold, wet, or windy it might be!

Date:

Astronomy

Jul. 07, 2014 Rise Set
Actual Time 5:42 AM AST 6:52 PM AST
Civil Twilight 5:18 AM AST 7:16 PM AST
Nautical Twilight 4:49 AM AST 7:44 PM AST
Astronomical Twilight 4:20 AM AST 8:13 PM AST
Moon 2:10 PM AST (7/7) 1:08 AM AST (7/7)
Length of Visible Light 13h 57m
Length of Day
13h 09m
Waxing Gibbous, 72% of the Moon is Illuminated
Jul 7
Waxing Gibbous
Jul 12
Full
Jul 18
Last Quarter
Jul 26
New
Aug 3
First Quarter

Hourly Weather History & Observations

Time (AST) Temp. Heat Index Dew Point Humidity Pressure Visibility Wind Dir Wind Speed Gust Speed Precip Events Conditions
12:00 AM 82.4 °F 88.2 °F 73.4 °F 74% 30.09 in 6.2 mi East 12.7 mph - N/A   Scattered Clouds
1:00 AM 82.4 °F 89.5 °F 75.2 °F 79% 30.09 in 6.2 mi East 9.2 mph - N/A   Mostly Cloudy
2:00 AM 81 °F - 74 °F 74% 30.08 in 12 mi East 11.5 mph - -   Partly Cloudy
2:00 AM 80.6 °F 85.4 °F 73.4 °F 79% 30.06 in 6.2 mi East 11.5 mph - N/A   Mostly Cloudy
3:00 AM 80.6 °F 85.4 °F 73.4 °F 79% 30.06 in 6.2 mi East 10.4 mph - N/A   Mostly Cloudy
4:00 AM 82.4 °F 88.2 °F 73.4 °F 74% 30.06 in 6.2 mi East 10.4 mph - N/A   Partly Cloudy
5:00 AM 81 °F - 71 °F 64% 30.08 in 19 mi East 10.4 mph - -   Scattered Clouds
5:00 AM 80.6 °F 84.6 °F 71.6 °F 74% 30.06 in 6.2 mi East 10.4 mph - N/A   Partly Cloudy
6:00 AM 80.6 °F 84.6 °F 71.6 °F 74% 30.09 in 6.2 mi East 12.7 mph - N/A   Partly Cloudy
7:00 AM 82.4 °F 88.2 °F 73.4 °F 74% 30.12 in 6.2 mi East 6.9 mph - N/A   Partly Cloudy
8:00 AM 83 °F - 73 °F 64% 30.14 in 12 mi East 9.2 mph - -   Partly Cloudy
8:00 AM 82.4 °F 88.2 °F 73.4 °F 74% 30.12 in 6.2 mi East 9.2 mph - N/A   Partly Cloudy
9:00 AM 84.2 °F 90.9 °F 73.4 °F 70% 30.15 in 6.2 mi East 11.5 mph - N/A   Scattered Clouds
10:00 AM 84.2 °F 90.9 °F 73.4 °F 70% 30.15 in 6.2 mi East 15.0 mph - N/A   Scattered Clouds
11:00 AM 86 °F - 72 °F 55% 30.15 in 12 mi East 12.7 mph - -   Scattered Clouds
11:00 AM 86.0 °F 93.4 °F 73.4 °F 66% 30.12 in 6.2 mi East 12.7 mph 25.3 mph N/A   Partly Cloudy
12:00 PM 86.0 °F 91.8 °F 71.6 °F 62% 30.12 in 6.2 mi ESE 13.8 mph - N/A   Partly Cloudy
1:00 PM 86.0 °F 93.4 °F 73.4 °F 66% 30.12 in 6.2 mi ESE 11.5 mph - N/A   Scattered Clouds
2:00 PM 86 °F - 71 °F 53% 30.12 in 11 mi ESE 12.7 mph - -   Haze
2:00 PM 86.0 °F 91.8 °F 71.6 °F 62% 30.09 in 6.2 mi East 12.7 mph - N/A   Scattered Clouds
3:00 PM 86.0 °F 91.8 °F 71.6 °F 62% 30.09 in 6.2 mi East 12.7 mph - N/A   Scattered Clouds
4:00 PM 86.0 °F 91.8 °F 71.6 °F 62% 30.09 in 6.2 mi East 12.7 mph - N/A   Partly Cloudy
5:00 PM 85 °F - 72 °F 56% 30.09 in 11 mi ESE 10.4 mph - -   Haze
5:00 PM 84.2 °F 89.6 °F 71.6 °F 66% 30.09 in 6.2 mi East 12.7 mph - N/A   Scattered Clouds
6:00 PM 84.2 °F 89.6 °F 71.6 °F 66% 30.09 in 6.2 mi East 10.4 mph - N/A   Scattered Clouds
7:00 PM 82.4 °F 88.2 °F 73.4 °F 74% 30.12 in 6.2 mi East 8.1 mph - N/A   Partly Cloudy
8:00 PM 82 °F - 73 °F 67% 30.14 in 11 mi East 10.4 mph - -   Haze
8:00 PM 82.4 °F 88.2 °F 73.4 °F 74% 30.12 in 6.2 mi East 10.4 mph - N/A   Partly Cloudy
9:00 PM 82.4 °F 88.2 °F 73.4 °F 74% 30.12 in 6.2 mi East 10.4 mph - N/A   Scattered Clouds
10:00 PM 82.4 °F 88.2 °F 73.4 °F 74% 30.15 in 6.2 mi East 11.5 mph - N/A   Partly Cloudy
11:00 PM 82 °F - 73 °F 67% 30.15 in 19 mi ENE 10.4 mph - -   Scattered Clouds
11:00 PM 82.4 °F 88.2 °F 73.4 °F 74% 30.15 in 6.2 mi ENE 10.4 mph - N/A   Partly Cloudy